| time (UTC) | temp F | wind direction | speed MPH | gust MPH | rain 1hr in | rain 24hr in | rain mn in | humidity % | barometer mb |
| 20260904222044 | 82 | 220 | 4.0 | 7.0 | 0.00 | 0.00 | 0.00 | 35 | 1023.4 |
| 20260904221538 | 80 | 323 | 3.0 | 3.0 | 0.00 | 0.00 | 0.00 | 37 | 1023.3 |
| 20260904221033 | 80 | 241 | 5.0 | 7.0 | 0.00 | 0.00 | 0.00 | 36 | 1023.4 |
| 20260904220532 | 81 | 263 | 6.0 | 9.0 | 0.00 | 0.00 | 0.00 | 36 | 1023.4 |
| 20260904220029 | 79 | 240 | 1.0 | 2.0 | 0.00 | 0.00 | 0.00 | 35 | 1023.5 |
| 20260904215528 | 78 | 265 | 7.0 | 9.0 | 0.00 | 0.00 | 0.00 | 38 | 1023.5 |
| 20260904215024 | 78 | 286 | 6.0 | 7.0 | 0.00 | 0.00 | 0.00 | 39 | 1023.4 |
| 20260904214519 | 78 | 190 | 4.0 | 5.0 | 0.00 | 0.00 | 0.00 | 39 | 1023.5 |
| 20260904214015 | 78 | 259 | 4.0 | 7.0 | 0.00 | 0.00 | 0.00 | 39 | 1023.8 |
| 20260904213513 | 78 | 257 | 2.0 | 3.0 | 0.00 | 0.00 | 0.00 | 40 | 1023.8 |
| 20260904213010 | 79 | 263 | 3.0 | 3.0 | 0.00 | 0.00 | 0.00 | 38 | 1023.8 |
| 20260904212509 | 80 | 245 | 4.0 | 5.0 | 0.00 | 0.00 | 0.00 | 38 | 1023.5 |
| 20260904212004 | 80 | 295 | 5.0 | 9.0 | 0.00 | 0.00 | 0.00 | 37 | 1023.9 |
| 20260904211458 | 80 | 223 | 6.0 | 7.0 | 0.00 | 0.00 | 0.00 | 37 | 1023.8 |
| 20260904210954 | 81 | 215 | 6.0 | 9.0 | 0.00 | 0.00 | 0.00 | 37 | 1023.8 |
| 20260904210453 | 79 | 270 | 5.0 | 7.0 | 0.00 | 0.00 | 0.00 | 38 | 1023.9 |
| 20260904205949 | 79 | 257 | 7.0 | 9.0 | 0.00 | 0.00 | 0.00 | 39 | 1024.1 |
| 20260904205444 | 79 | 252 | 5.0 | 5.0 | 0.00 | 0.00 | 0.00 | 40 | 1023.9 |
| 20260904204941 | 79 | 249 | 4.0 | 5.0 | 0.00 | 0.00 | 0.00 | 40 | 1024.3 |
| 20260904204436 | 79 | 219 | 6.0 | 9.0 | 0.00 | 0.00 | 0.00 | 40 | 1024.4 |
| 20260904203933 | 78 | 251 | 2.0 | 3.0 | 0.00 | 0.00 | 0.00 | 41 | 1024.3 |
| 20260904203429 | 78 | 222 | 9.0 | 10.0 | 0.00 | 0.00 | 0.00 | 42 | 1024.5 |
| 20260904202924 | 78 | 232 | 2.0 | 3.0 | 0.00 | 0.00 | 0.00 | 41 | 1024.3 |
| 20260904202420 | 78 | 239 | 2.0 | 3.0 | 0.00 | 0.00 | 0.00 | 42 | 1024.4 |
| 20260904201916 | 79 | 218 | 3.0 | 3.0 | 0.00 | 0.00 | 0.00 | 41 | 1024.8 |
| 20260904201411 | 78 | 277 | 3.0 | 3.0 | 0.00 | 0.00 | 0.00 | 41 | 1024.6 |
| 20260904200907 | 79 | 239 | 3.0 | 5.0 | 0.00 | 0.00 | 0.00 | 43 | 1024.8 |
| 20260904200405 | 77 | 262 | 4.0 | 5.0 | 0.00 | 0.00 | 0.00 | 42 | 1024.9 |
| 20260904195900 | 75 | 245 | 6.0 | 7.0 | 0.00 | 0.00 | 0.00 | 44 | 1024.9 |
| 20260904195358 | 75 | 276 | 4.0 | 5.0 | 0.00 | 0.00 | 0.00 | 46 | 1025.0 |
| 20260904194853 | 74 | 253 | 5.0 | 7.0 | 0.00 | 0.00 | 0.00 | 48 | 1025.0 |
| 20260904194352 | 75 | 231 | 5.0 | 5.0 | 0.00 | 0.00 | 0.00 | 47 | 1025.1 |
| 20260904193848 | 75 | 240 | 3.0 | 3.0 | 0.00 | 0.00 | 0.00 | 49 | 1025.4 |
| 20260904193343 | 73 | 228 | 1.0 | 2.0 | 0.00 | 0.00 | 0.00 | 51 | 1025.1 |
| 20260904192838 | 74 | 250 | 2.0 | 2.0 | 0.00 | 0.00 | 0.00 | 50 | 1025.4 |
| 20260904192333 | 73 | 289 | 2.0 | 2.0 | 0.00 | 0.00 | 0.00 | 52 | 1025.3 |
| 20260904191830 | 74 | 242 | 4.0 | 5.0 | 0.00 | 0.00 | 0.00 | 50 | 1025.5 |
| 20260904191326 | 73 | 242 | 3.0 | 3.0 | 0.00 | 0.00 | 0.00 | 53 | 1025.5 |
| 20260904190823 | 72 | 250 | 0.0 | 2.0 | 0.00 | 0.00 | 0.00 | 55 | 1025.3 |
| 20260904190319 | 72 | 234 | 5.0 | 5.0 | 0.00 | 0.00 | 0.00 | 54 | 1025.4 |
| 20260904185814 | 72 | 245 | 5.0 | 7.0 | 0.00 | 0.00 | 0.00 | 53 | 1025.4 |
| 20260904185310 | 73 | 244 | 3.0 | 3.0 | 0.00 | 0.00 | 0.00 | 53 | 1025.3 |
| 20260904184809 | 72 | 330 | 3.0 | 3.0 | 0.00 | 0.00 | 0.00 | 53 | 1025.6 |
| 20260904184304 | 71 | 245 | 0.0 | 2.0 | 0.00 | 0.00 | 0.00 | 56 | 1025.9 |
| 20260904183759 | 70 | 246 | 0.0 | 0.0 | 0.00 | 0.00 | 0.00 | 56 | 1026.0 |
| 20260904183254 | 70 | 245 | 3.0 | 3.0 | 0.00 | 0.00 | 0.00 | 57 | 1026.0 |
| 20260904182749 | 70 | 232 | 7.0 | 9.0 | 0.00 | 0.00 | 0.00 | 58 | 1025.8 |
| 20260904182244 | 70 | 232 | 3.0 | 3.0 | 0.00 | 0.00 | 0.00 | 58 | 1026.0 |
| 20260904181740 | 70 | 257 | 4.0 | 5.0 | 0.00 | 0.00 | 0.00 | 58 | 1026.0 |
| 20260904181239 | 70 | 253 | 3.0 | 5.0 | 0.00 | 0.00 | 0.00 | 59 | 1026.1 |
| 20260904180735 | 69 | 214 | 4.0 | 5.0 | 0.00 | 0.00 | 0.00 | 59 | 1026.1 |
| 20260904180231 | 69 | 250 | 4.0 | 5.0 | 0.00 | 0.00 | 0.00 | 59 | 1026.1 |
| 20260904175729 | 69 | 267 | 4.0 | 7.0 | 0.00 | 0.00 | 0.00 | 59 | 1025.8 |
| 20260904175228 | 69 | 242 | 7.0 | 9.0 | 0.00 | 0.00 | 0.00 | 59 | 1026.1 |
| 20260904174723 | 69 | 243 | 4.0 | 7.0 | 0.00 | 0.00 | 0.00 | 59 | 1026.1 |
| 20260904174219 | 68 | 258 | 5.0 | 7.0 | 0.00 | 0.00 | 0.00 | 60 | 1026.4 |
| 20260904173715 | 68 | 227 | 5.0 | 7.0 | 0.00 | 0.00 | 0.00 | 61 | 1026.4 |
| 20260904173214 | 68 | 295 | 8.0 | 14.0 | 0.00 | 0.00 | 0.00 | 61 | 1026.5 |
| 20260904172712 | 68 | 257 | 5.0 | 7.0 | 0.00 | 0.00 | 0.00 | 62 | 1026.5 |
| 20260904172210 | 68 | 272 | 5.0 | 9.0 | 0.00 | 0.00 | 0.00 | 62 | 1026.3 |
| 20260904171706 | 68 | 221 | 9.0 | 14.0 | 0.00 | 0.00 | 0.00 | 63 | 1026.4 |
| 20260904171201 | 68 | 227 | 8.0 | 10.0 | 0.00 | 0.00 | 0.00 | 63 | 1026.5 |
| 20260904170657 | 69 | 259 | 10.0 | 14.0 | 0.00 | 0.00 | 0.00 | 62 | 1026.6 |
| 20260904170152 | 69 | 242 | 7.0 | 10.0 | 0.00 | 0.00 | 0.00 | 61 | 1026.5 |
| 20260904165651 | 69 | 251 | 10.0 | 14.0 | 0.00 | 0.00 | 0.00 | 61 | 1026.5 |
| 20260904165150 | 68 | 286 | 7.0 | 12.0 | 0.00 | 0.00 | 0.00 | 63 | 1026.5 |
| 20260904164646 | 69 | 242 | 10.0 | 12.0 | 0.00 | 0.00 | 0.00 | 62 | 1026.5 |
| 20260904164141 | 69 | 260 | 7.0 | 12.0 | 0.00 | 0.00 | 0.00 | 60 | 1026.4 |
| 20260904163636 | 69 | 262 | 7.0 | 9.0 | 0.00 | 0.00 | 0.00 | 60 | 1026.3 |
| 20260904163131 | 68 | 256 | 6.0 | 9.0 | 0.00 | 0.00 | 0.00 | 62 | 1026.3 |
| 20260904162625 | 67 | 264 | 7.0 | 9.0 | 0.00 | 0.00 | 0.00 | 63 | 1026.3 |
| 20260904162120 | 67 | 197 | 8.0 | 10.0 | 0.00 | 0.00 | 0.00 | 64 | 1026.5 |
| 20260904161616 | 67 | 239 | 5.0 | 7.0 | 0.00 | 0.00 | 0.00 | 64 | 1026.4 |
| 20260904161111 | 68 | 270 | 6.0 | 7.0 | 0.00 | 0.00 | 0.00 | 64 | 1026.4 |
| 20260904160607 | 66 | 273 | 8.0 | 9.0 | 0.00 | 0.00 | 0.00 | 66 | 1025.9 |
| 20260904155601 | 65 | 292 | 6.0 | 7.0 | 0.00 | 0.00 | 0.00 | 68 | 1026.1 |
| 20260904155055 | 65 | 223 | 9.0 | 14.0 | 0.00 | 0.00 | 0.00 | 69 | 1026.1 |
| 20260904154549 | 65 | 241 | 9.0 | 12.0 | 0.00 | 0.00 | 0.00 | 70 | 1025.9 |
| 20260904154039 | 64 | 255 | 10.0 | 14.0 | 0.00 | 0.00 | 0.00 | 70 | 1026.0 |
| 20260904153538 | 64 | 240 | 6.0 | 7.0 | 0.00 | 0.00 | 0.00 | 72 | 1025.8 |
| 20260904153035 | 64 | 246 | 9.0 | 12.0 | 0.00 | 0.00 | 0.00 | 74 | 1025.9 |
| 20260904152530 | 64 | 271 | 13.0 | 19.0 | 0.00 | 0.00 | 0.00 | 74 | 1025.6 |
| 20260904152026 | 63 | 256 | 7.0 | 10.0 | 0.00 | 0.00 | 0.00 | 76 | 1025.6 |
| 20260904151520 | 63 | 258 | 7.0 | 9.0 | 0.00 | 0.00 | 0.00 | 75 | 1026.0 |
| 20260904151014 | 62 | 259 | 8.0 | 12.0 | 0.00 | 0.00 | 0.00 | 77 | 1025.6 |
| 20260904150509 | 61 | 239 | 5.0 | 7.0 | 0.00 | 0.00 | 0.00 | 79 | 1025.4 |
| 20260904150009 | 60 | 257 | 7.0 | 9.0 | 0.00 | 0.00 | 0.00 | 82 | 1025.6 |
| 20260904145503 | 60 | 231 | 7.0 | 12.0 | 0.00 | 0.00 | 0.00 | 83 | 1025.5 |
| 20260904144958 | 60 | 238 | 4.0 | 5.0 | 0.00 | 0.00 | 0.00 | 82 | 1025.6 |
| 20260904144454 | 60 | 256 | 3.0 | 3.0 | 0.00 | 0.00 | 0.00 | 82 | 1025.9 |
| 20260904143950 | 61 | 246 | 3.0 | 3.0 | 0.00 | 0.00 | 0.00 | 79 | 1025.8 |
| 20260904143446 | 63 | 232 | 5.0 | 9.0 | 0.00 | 0.00 | 0.00 | 71 | 1025.6 |
| 20260904142943 | 63 | 251 | 5.0 | 7.0 | 0.00 | 0.00 | 0.00 | 69 | 1025.8 |
| 20260904142439 | 63 | 274 | 4.0 | 5.0 | 0.00 | 0.00 | 0.00 | 69 | 1025.6 |
| 20260904141938 | 63 | 249 | 4.0 | 5.0 | 0.00 | 0.00 | 0.00 | 69 | 1025.5 |
| 20260904141434 | 63 | 247 | 4.0 | 5.0 | 0.00 | 0.00 | 0.00 | 69 | 1025.5 |
| 20260904140931 | 63 | 280 | 6.0 | 9.0 | 0.00 | 0.00 | 0.00 | 67 | 1025.6 |
| 20260904140430 | 63 | 256 | 6.0 | 7.0 | 0.00 | 0.00 | 0.00 | 68 | 1025.4 |
| 20260904135929 | 63 | 286 | 7.0 | 10.0 | 0.00 | 0.00 | 0.00 | 67 | 1025.4 |
| 20260904135429 | 63 | 275 | 5.0 | 7.0 | 0.00 | 0.00 | 0.00 | 68 | 1025.3 |
| 20260904134925 | 63 | 249 | 8.0 | 10.0 | 0.00 | 0.00 | 0.00 | 68 | 1025.4 |
| 20260904134425 | 63 | 238 | 4.0 | 7.0 | 0.00 | 0.00 | 0.00 | 67 | 1025.4 |
| 20260904133920 | 63 | 242 | 4.0 | 5.0 | 0.00 | 0.00 | 0.00 | 67 | 1025.3 |
| 20260904133415 | 63 | 240 | 2.0 | 2.0 | 0.00 | 0.00 | 0.00 | 67 | 1025.1 |
| 20260904132910 | 63 | 252 | 2.0 | 2.0 | 0.00 | 0.00 | 0.00 | 67 | 1025.1 |
| 20260904132405 | 63 | 252 | 4.0 | 5.0 | 0.00 | 0.00 | 0.00 | 67 | 1025.1 |
| 20260904131905 | 63 | 247 | 3.0 | 3.0 | 0.00 | 0.00 | 0.00 | 67 | 1025.0 |
| 20260904131400 | 63 | 246 | 3.0 | 3.0 | 0.00 | 0.00 | 0.00 | 67 | 1025.1 |
| 20260904130855 | 63 | 273 | 3.0 | 3.0 | 0.00 | 0.00 | 0.00 | 67 | 1024.9 |
| 20260904130355 | 63 | 244 | 3.0 | 3.0 | 0.00 | 0.00 | 0.00 | 66 | 1024.6 |
| 20260904125849 | 63 | 278 | 3.0 | 5.0 | 0.00 | 0.00 | 0.00 | 66 | 1024.5 |
| 20260904125346 | 63 | 235 | 5.0 | 7.0 | 0.00 | 0.00 | 0.00 | 65 | 1024.5 |
| 20260904124845 | 63 | 245 | 3.0 | 3.0 | 0.00 | 0.00 | 0.00 | 65 | 1024.4 |
| 20260904124342 | 63 | 232 | 4.0 | 5.0 | 0.00 | 0.00 | 0.00 | 64 | 1024.4 |
| 20260904123837 | 63 | 235 | 3.0 | 3.0 | 0.00 | 0.00 | 0.00 | 64 | 1024.4 |
| 20260904123332 | 63 | 246 | 3.0 | 3.0 | 0.00 | 0.00 | 0.00 | 63 | 1024.5 |
| 20260904122827 | 63 | 248 | 3.0 | 3.0 | 0.00 | 0.00 | 0.00 | 63 | 1024.3 |
| 20260904122327 | 64 | 257 | 3.0 | 3.0 | 0.00 | 0.00 | 0.00 | 62 | 1024.3 |
| 20260904121822 | 64 | 243 | 3.0 | 3.0 | 0.00 | 0.00 | 0.00 | 61 | 1024.3 |
| 20260904121318 | 64 | 250 | 4.0 | 5.0 | 0.00 | 0.00 | 0.00 | 61 | 1024.1 |
| 20260904120814 | 65 | 243 | 3.0 | 3.0 | 0.00 | 0.00 | 0.00 | 60 | 1023.9 |
| 20260904120310 | 65 | 233 | 5.0 | 5.0 | 0.00 | 0.00 | 0.00 | 60 | 1024.0 |
| 20260904115805 | 65 | 247 | 4.0 | 5.0 | 0.00 | 0.00 | 0.00 | 60 | 1024.1 |
| 20260904115300 | 65 | 256 | 5.0 | 9.0 | 0.00 | 0.00 | 0.00 | 60 | 1024.0 |
| 20260904114754 | 65 | 268 | 6.0 | 9.0 | 0.00 | 0.00 | 0.00 | 59 | 1023.9 |
| 20260904114254 | 65 | 251 | 3.0 | 3.0 | 0.00 | 0.00 | 0.00 | 59 | 1024.0 |
| 20260904113750 | 65 | 235 | 4.0 | 5.0 | 0.00 | 0.00 | 0.00 | 59 | 1024.1 |
| 20260904113248 | 65 | 249 | 3.0 | 5.0 | 0.00 | 0.00 | 0.00 | 58 | 1023.6 |
| 20260904112743 | 66 | 263 | 2.0 | 3.0 | 0.00 | 0.00 | 0.00 | 58 | 1024.1 |
| 20260904112239 | 66 | 225 | 4.0 | 5.0 | 0.00 | 0.00 | 0.00 | 58 | 1023.9 |
| 20260904111735 | 66 | 243 | 2.0 | 3.0 | 0.00 | 0.00 | 0.00 | 58 | 1023.9 |
| 20260904111231 | 66 | 254 | 4.0 | 5.0 | 0.00 | 0.00 | 0.00 | 58 | 1023.9 |
| 20260904110726 | 66 | 249 | 5.0 | 7.0 | 0.00 | 0.00 | 0.00 | 57 | 1024.1 |
| 20260904110225 | 66 | 248 | 2.0 | 2.0 | 0.00 | 0.00 | 0.00 | 58 | 1023.8 |
| 20260904105720 | 66 | 231 | 4.0 | 5.0 | 0.00 | 0.00 | 0.00 | 58 | 1024.1 |
| 20260904105214 | 66 | 242 | 5.0 | 7.0 | 0.00 | 0.00 | 0.00 | 58 | 1023.9 |
| 20260904104704 | 66 | 252 | 2.0 | 2.0 | 0.00 | 0.00 | 0.00 | 59 | 1023.5 |
| 20260904104200 | 66 | 245 | 2.0 | 3.0 | 0.00 | 0.00 | 0.00 | 58 | 1024.0 |
| 20260904103656 | 66 | 249 | 2.0 | 2.0 | 0.00 | 0.00 | 0.00 | 58 | 1023.6 |
| 20260904103151 | 66 | 241 | 3.0 | 3.0 | 0.00 | 0.00 | 0.00 | 58 | 1023.6 |
| 20260904102647 | 66 | 240 | 2.0 | 2.0 | 0.00 | 0.00 | 0.00 | 58 | 1023.5 |
| 20260904102142 | 66 | 225 | 2.0 | 3.0 | 0.00 | 0.00 | 0.00 | 58 | 1023.5 |
| 20260904101639 | 66 | 263 | 3.0 | 5.0 | 0.00 | 0.00 | 0.00 | 58 | 1023.5 |
| 20260904101134 | 66 | 241 | 3.0 | 3.0 | 0.00 | 0.00 | 0.00 | 58 | 1023.4 |
| 20260904100630 | 66 | 255 | 3.0 | 3.0 | 0.00 | 0.00 | 0.00 | 58 | 1023.5 |
| 20260904100125 | 66 | 245 | 2.0 | 3.0 | 0.00 | 0.00 | 0.00 | 58 | 1023.4 |
| 20260904095620 | 66 | 220 | 2.0 | 3.0 | 0.00 | 0.00 | 0.00 | 58 | 1023.3 |
| 20260904095120 | 66 | 246 | 3.0 | 3.0 | 0.00 | 0.00 | 0.00 | 58 | 1023.3 |
| 20260904094615 | 66 | 239 | 3.0 | 5.0 | 0.00 | 0.00 | 0.00 | 58 | 1023.3 |
| 20260904094110 | 66 | 248 | 2.0 | 3.0 | 0.00 | 0.00 | 0.00 | 57 | 1023.2 |
| 20260904093607 | 67 | 261 | 2.0 | 3.0 | 0.00 | 0.00 | 0.00 | 56 | 1023.3 |
| 20260904093107 | 67 | 259 | 2.0 | 3.0 | 0.00 | 0.00 | 0.00 | 55 | 1023.3 |
| 20260904092603 | 67 | 243 | 3.0 | 3.0 | 0.00 | 0.00 | 0.00 | 54 | 1023.3 |
| 20260904092059 | 68 | 243 | 2.0 | 3.0 | 0.00 | 0.00 | 0.00 | 53 | 1023.3 |
| 20260904091555 | 68 | 240 | 2.0 | 2.0 | 0.00 | 0.00 | 0.00 | 53 | 1023.0 |
| 20260904091054 | 68 | 243 | 1.0 | 2.0 | 0.00 | 0.00 | 0.00 | 52 | 1023.3 |
| 20260904090550 | 68 | 245 | 2.0 | 2.0 | 0.00 | 0.00 | 0.00 | 52 | 1023.4 |
| 20260904090045 | 68 | 243 | 1.0 | 2.0 | 0.00 | 0.00 | 0.00 | 52 | 1023.4 |
| 20260904085540 | 68 | 246 | 0.0 | 0.0 | 0.00 | 0.00 | 0.00 | 52 | 1023.2 |
| 20260904085040 | 68 | 246 | 0.0 | 0.0 | 0.00 | 0.00 | 0.00 | 52 | 1023.3 |
| 20260904084536 | 68 | 239 | 0.0 | 0.0 | 0.00 | 0.00 | 0.00 | 52 | 1023.2 |
| 20260904084032 | 68 | 236 | 0.0 | 2.0 | 0.00 | 0.00 | 0.00 | 52 | 1023.3 |
| 20260904083527 | 68 | 231 | 0.0 | 0.0 | 0.00 | 0.00 | 0.00 | 52 | 1023.4 |
| 20260904083023 | 68 | 226 | 0.0 | 2.0 | 0.00 | 0.00 | 0.00 | 53 | 1023.2 |
| 20260904082518 | 68 | 240 | 0.0 | 0.0 | 0.00 | 0.00 | 0.00 | 54 | 1023.5 |
| 20260904082013 | 68 | 234 | 2.0 | 2.0 | 0.00 | 0.00 | 0.00 | 53 | 1023.3 |
| 20260904081509 | 68 | 244 | 0.0 | 0.0 | 0.00 | 0.00 | 0.00 | 53 | 1023.6 |
| 20260904081004 | 68 | 244 | 0.0 | 0.0 | 0.00 | 0.00 | 0.00 | 52 | 1023.2 |
| 20260904080459 | 68 | 241 | 0.0 | 0.0 | 0.00 | 0.00 | 0.00 | 52 | 1023.4 |
| 20260904075955 | 68 | 243 | 0.0 | 2.0 | 0.00 | 0.00 | 0.00 | 52 | 1023.5 |
| 20260904075451 | 68 | 227 | 0.0 | 2.0 | 0.00 | 0.00 | 0.00 | 52 | 1023.9 |
| 20260904074950 | 68 | 244 | 1.0 | 2.0 | 0.00 | 0.00 | 0.00 | 52 | 1023.8 |
| 20260904074445 | 68 | 244 | 2.0 | 3.0 | 0.00 | 0.00 | 0.00 | 52 | 1023.8 |
| 20260904073940 | 68 | 256 | 2.0 | 2.0 | 0.00 | 0.00 | 0.00 | 52 | 1023.5 |
| 20260904073436 | 68 | 244 | 0.0 | 2.0 | 0.00 | 0.00 | 0.00 | 52 | 1023.4 |
| 20260904072931 | 68 | 245 | 2.0 | 2.0 | 0.00 | 0.00 | 0.00 | 52 | 1023.5 |
| 20260904072426 | 68 | 243 | 1.0 | 2.0 | 0.00 | 0.00 | 0.00 | 52 | 1023.5 |
| 20260904071921 | 68 | 241 | 1.0 | 2.0 | 0.00 | 0.00 | 0.00 | 52 | 1023.6 |
| 20260904071417 | 68 | 244 | 2.0 | 2.0 | 0.00 | 0.00 | 0.00 | 52 | 1023.4 |
| 20260904070912 | 68 | 244 | 1.0 | 2.0 | 0.00 | 0.00 | 0.00 | 52 | 1023.6 |
| 20260904070411 | 69 | 240 | 2.0 | 3.0 | 0.00 | 0.00 | 0.00 | 52 | 1023.6 |
| 20260904065910 | 69 | 234 | 2.0 | 3.0 | 0.00 | 0.00 | 0.00 | 51 | 1023.9 |
| 20260904065407 | 68 | 239 | 3.0 | 3.0 | 0.00 | 0.00 | 0.00 | 52 | 1023.9 |
| 20260904064906 | 68 | 282 | 3.0 | 3.0 | 0.00 | 0.00 | 0.00 | 52 | 1023.8 |
| 20260904064403 | 68 | 232 | 2.0 | 3.0 | 0.00 | 0.00 | 0.00 | 52 | 1023.8 |
| 20260904063858 | 68 | 241 | 2.0 | 2.0 | 0.00 | 0.00 | 0.00 | 52 | 1023.6 |
| 20260904063355 | 68 | 252 | 2.0 | 2.0 | 0.00 | 0.00 | 0.00 | 52 | 1023.8 |
| 20260904062849 | 68 | 274 | 1.0 | 2.0 | 0.00 | 0.00 | 0.00 | 52 | 1023.8 |
| 20260904062345 | 68 | 238 | 1.0 | 2.0 | 0.00 | 0.00 | 0.00 | 52 | 1023.8 |
| 20260904061841 | 68 | 242 | 1.0 | 2.0 | 0.00 | 0.00 | 0.00 | 52 | 1023.8 |
| 20260904061337 | 68 | 254 | 3.0 | 3.0 | 0.00 | 0.00 | 0.00 | 52 | 1023.8 |
| 20260904060833 | 68 | 245 | 2.0 | 2.0 | 0.00 | 0.00 | 0.00 | 52 | 1023.9 |
| 20260904060329 | 68 | 248 | 1.0 | 3.0 | 0.00 | 0.00 | 0.00 | 52 | 1024.0 |
| 20260904055824 | 68 | 252 | 2.0 | 2.0 | 0.00 | 0.00 | 0.00 | 53 | 1023.8 |
| 20260904055319 | 68 | 241 | 2.0 | 3.0 | 0.00 | 0.00 | 0.00 | 53 | 1023.6 |
| 20260904054815 | 68 | 240 | 2.0 | 3.0 | 0.00 | 0.00 | 0.00 | 53 | 1023.9 |
| 20260904054311 | 68 | 255 | 1.0 | 2.0 | 0.00 | 0.00 | 0.00 | 53 | 1023.6 |
| 20260904053806 | 68 | 230 | 1.0 | 2.0 | 0.00 | 0.00 | 0.00 | 52 | 1023.8 |
| 20260904053305 | 68 | 276 | 2.0 | 2.0 | 0.00 | 0.00 | 0.00 | 52 | 1023.8 |
| 20260904052801 | 68 | 235 | 2.0 | 2.0 | 0.00 | 0.00 | 0.00 | 52 | 1023.9 |
| 20260904052258 | 68 | 240 | 1.0 | 2.0 | 0.00 | 0.00 | 0.00 | 53 | 1023.9 |
| 20260904051753 | 68 | 250 | 2.0 | 3.0 | 0.00 | 0.00 | 0.00 | 53 | 1023.9 |
| 20260904051248 | 68 | 253 | 2.0 | 3.0 | 0.00 | 0.00 | 0.00 | 53 | 1024.0 |
| 20260904050744 | 68 | 263 | 3.0 | 3.0 | 0.00 | 0.00 | 0.00 | 53 | 1023.9 |
| 20260904050240 | 68 | 254 | 2.0 | 2.0 | 0.00 | 0.00 | 0.00 | 53 | 1023.9 |
| 20260904045735 | 68 | 244 | 2.0 | 3.0 | 0.00 | 0.00 | 0.00 | 53 | 1024.1 |
| 20260904045229 | 67 | 258 | 2.0 | 2.0 | 0.00 | 0.00 | 0.00 | 54 | 1024.1 |
| 20260904044724 | 67 | 261 | 2.0 | 3.0 | 0.00 | 0.00 | 0.00 | 54 | 1024.3 |
| 20260904044221 | 68 | 247 | 1.0 | 2.0 | 0.00 | 0.00 | 0.00 | 54 | 1024.0 |
| 20260904043717 | 68 | 244 | 2.0 | 2.0 | 0.00 | 0.00 | 0.00 | 53 | 1024.0 |
| 20260904043213 | 68 | 242 | 1.0 | 2.0 | 0.00 | 0.00 | 0.00 | 53 | 1023.9 |
| 20260904042708 | 69 | 257 | 0.0 | 2.0 | 0.00 | 0.00 | 0.00 | 52 | 1023.8 |
| 20260904042204 | 69 | 249 | 1.0 | 2.0 | 0.00 | 0.00 | 0.00 | 52 | 1024.1 |
| 20260904041658 | 68 | 253 | 3.0 | 3.0 | 0.00 | 0.00 | 0.00 | 52 | 1024.1 |
| 20260904041155 | 68 | 272 | 3.0 | 3.0 | 0.00 | 0.00 | 0.00 | 53 | 1024.0 |
| 20260904040650 | 68 | 255 | 2.0 | 3.0 | 0.00 | 0.00 | 0.00 | 53 | 1024.3 |
| 20260904040146 | 68 | 250 | 2.0 | 3.0 | 0.00 | 0.00 | 0.00 | 53 | 1024.1 |
| 20260904035642 | 68 | 223 | 5.0 | 5.0 | 0.00 | 0.00 | 0.00 | 54 | 1024.1 |
| 20260904035137 | 68 | 247 | 2.0 | 2.0 | 0.00 | 0.00 | 0.00 | 54 | 1023.9 |
| 20260904034636 | 68 | 248 | 2.0 | 2.0 | 0.00 | 0.00 | 0.00 | 54 | 1024.1 |
| 20260904034132 | 68 | 242 | 2.0 | 2.0 | 0.00 | 0.00 | 0.00 | 53 | 1024.1 |
| 20260904033627 | 68 | 239 | 3.0 | 3.0 | 0.00 | 0.00 | 0.00 | 53 | 1023.9 |
| 20260904033125 | 68 | 258 | 2.0 | 2.0 | 0.00 | 0.00 | 0.00 | 53 | 1024.3 |
| 20260904032620 | 68 | 249 | 1.0 | 2.0 | 0.00 | 0.00 | 0.00 | 53 | 1024.3 |
| 20260904032119 | 69 | 282 | 2.0 | 3.0 | 0.00 | 0.00 | 0.00 | 52 | 1024.0 |
| 20260904031618 | 69 | 231 | 2.0 | 2.0 | 0.00 | 0.00 | 0.00 | 52 | 1023.9 |
| 20260904031114 | 69 | 254 | 4.0 | 5.0 | 0.00 | 0.00 | 0.00 | 52 | 1023.9 |
| 20260904030610 | 69 | 251 | 3.0 | 3.0 | 0.00 | 0.00 | 0.00 | 52 | 1024.0 |
| 20260904030105 | 69 | 238 | 3.0 | 3.0 | 0.00 | 0.00 | 0.00 | 51 | 1023.8 |
| 20260904025601 | 69 | 266 | 3.0 | 3.0 | 0.00 | 0.00 | 0.00 | 51 | 1023.8 |
| 20260904025056 | 70 | 283 | 3.0 | 3.0 | 0.00 | 0.00 | 0.00 | 51 | 1023.6 |
| 20260904024551 | 70 | 238 | 4.0 | 5.0 | 0.00 | 0.00 | 0.00 | 50 | 1023.5 |
| 20260904024047 | 70 | 250 | 5.0 | 5.0 | 0.00 | 0.00 | 0.00 | 50 | 1023.5 |
| 20260904023543 | 70 | 247 | 3.0 | 5.0 | 0.00 | 0.00 | 0.00 | 50 | 1023.3 |
| 20260904023038 | 69 | 249 | 4.0 | 5.0 | 0.00 | 0.00 | 0.00 | 50 | 1023.5 |
| 20260904022533 | 70 | 276 | 2.0 | 2.0 | 0.00 | 0.00 | 0.00 | 51 | 1023.3 |
| 20260904022030 | 70 | 254 | 1.0 | 2.0 | 0.00 | 0.00 | 0.00 | 50 | 1023.0 |
| 20260904021525 | 70 | 243 | 1.0 | 2.0 | 0.00 | 0.00 | 0.00 | 50 | 1023.2 |
| 20260904021021 | 71 | 269 | 1.0 | 2.0 | 0.00 | 0.00 | 0.00 | 49 | 1023.0 |
| 20260904020521 | 71 | 244 | 1.0 | 2.0 | 0.00 | 0.00 | 0.00 | 48 | 1023.0 |
| 20260904020015 | 72 | 260 | 4.0 | 7.0 | 0.00 | 0.00 | 0.00 | 46 | 1022.9 |
| 20260904015510 | 72 | 239 | 5.0 | 7.0 | 0.00 | 0.00 | 0.00 | 45 | 1023.0 |
| 20260904015009 | 72 | 287 | 5.0 | 5.0 | 0.00 | 0.00 | 0.00 | 45 | 1023.0 |
| 20260904014503 | 73 | 285 | 5.0 | 7.0 | 0.00 | 0.00 | 0.00 | 43 | 1022.8 |
| 20260904013959 | 73 | 256 | 4.0 | 5.0 | 0.00 | 0.00 | 0.00 | 41 | 1023.0 |
| 20260904013455 | 73 | 250 | 2.0 | 3.0 | 0.00 | 0.00 | 0.00 | 41 | 1023.0 |
| 20260904012951 | 74 | 242 | 5.0 | 5.0 | 0.00 | 0.00 | 0.00 | 40 | 1023.2 |
| 20260904012451 | 74 | 246 | 4.0 | 7.0 | 0.00 | 0.00 | 0.00 | 40 | 1022.8 |
| 20260904011945 | 74 | 248 | 4.0 | 5.0 | 0.00 | 0.00 | 0.00 | 39 | 1022.9 |
| 20260904011440 | 75 | 276 | 5.0 | 7.0 | 0.00 | 0.00 | 0.00 | 39 | 1022.9 |
| 20260904010935 | 75 | 236 | 6.0 | 7.0 | 0.00 | 0.00 | 0.00 | 39 | 1022.9 |
| 20260904010431 | 75 | 238 | 5.0 | 9.0 | 0.00 | 0.00 | 0.00 | 38 | 1022.8 |
| 20260904005926 | 75 | 248 | 6.0 | 7.0 | 0.00 | 0.00 | 0.00 | 38 | 1023.0 |
| 20260904005421 | 75 | 257 | 7.0 | 9.0 | 0.00 | 0.00 | 0.00 | 37 | 1022.8 |
| 20260904004916 | 76 | 250 | 4.0 | 7.0 | 0.00 | 0.00 | 0.00 | 37 | 1022.8 |
| 20260904004412 | 76 | 253 | 6.0 | 7.0 | 0.00 | 0.00 | 0.00 | 37 | 1022.8 |
| 20260904003907 | 76 | 254 | 7.0 | 10.0 | 0.00 | 0.00 | 0.00 | 37 | 1023.0 |
| 20260904003402 | 76 | 219 | 7.0 | 9.0 | 0.00 | 0.00 | 0.00 | 37 | 1022.9 |
| 20260904002857 | 76 | 235 | 6.0 | 7.0 | 0.00 | 0.00 | 0.00 | 37 | 1023.0 |
| 20260904002354 | 76 | 284 | 5.0 | 9.0 | 0.00 | 0.00 | 0.00 | 37 | 1022.8 |
| 20260904001853 | 76 | 231 | 10.0 | 12.0 | 0.00 | 0.00 | 0.00 | 37 | 1023.0 |
| 20260904001349 | 76 | 223 | 7.0 | 12.0 | 0.00 | 0.00 | 0.00 | 37 | 1022.9 |
| 20260904000843 | 77 | 210 | 9.0 | 10.0 | 0.00 | 0.00 | 0.00 | 36 | 1022.7 |
| 20260904000343 | 77 | 267 | 5.0 | 7.0 | 0.00 | 0.00 | 0.00 | 36 | 1022.9 |
| 20260903235843 | 77 | 241 | 7.0 | 9.0 | 0.00 | 0.00 | 0.00 | 36 | 1022.9 |
| 20260903235339 | 77 | 258 | 5.0 | 7.0 | 0.00 | 0.00 | 0.00 | 36 | 1023.0 |
| 20260903234838 | 77 | 241 | 6.0 | 9.0 | 0.00 | 0.00 | 0.00 | 35 | 1022.8 |
| 20260903234335 | 78 | 276 | 5.0 | 7.0 | 0.00 | 0.00 | 0.00 | 35 | 1023.0 |
| 20260903233831 | 79 | 240 | 6.0 | 7.0 | 0.00 | 0.00 | 0.00 | 34 | 1022.7 |
| 20260903233326 | 80 | 248 | 11.0 | 14.0 | 0.00 | 0.00 | 0.00 | 33 | 1022.7 |
| 20260903232825 | 80 | 285 | 7.0 | 14.0 | 0.00 | 0.00 | 0.00 | 32 | 1022.8 |
| 20260903232321 | 78 | 212 | 7.0 | 9.0 | 0.00 | 0.00 | 0.00 | 34 | 1022.9 |
| 20260903231820 | 78 | 261 | 4.0 | 5.0 | 0.00 | 0.00 | 0.00 | 35 | 1022.7 |
| 20260903231316 | 78 | 273 | 7.0 | 9.0 | 0.00 | 0.00 | 0.00 | 34 | 1022.7 |
| 20260903230811 | 79 | 236 | 5.0 | 5.0 | 0.00 | 0.00 | 0.00 | 34 | 1023.0 |
| 20260903230306 | 80 | 287 | 5.0 | 7.0 | 0.00 | 0.00 | 0.00 | 33 | 1022.8 |
| 20260903225803 | 80 | 281 | 5.0 | 7.0 | 0.00 | 0.00 | 0.00 | 33 | 1022.9 |
| 20260903225258 | 80 | 301 | 4.0 | 5.0 | 0.00 | 0.00 | 0.00 | 33 | 1022.9 |
| 20260903224755 | 80 | 236 | 5.0 | 7.0 | 0.00 | 0.00 | 0.00 | 33 | 1022.9 |
| 20260903224250 | 79 | 230 | 6.0 | 9.0 | 0.00 | 0.00 | 0.00 | 34 | 1022.9 |
| 20260903223746 | 78 | 258 | 4.0 | 7.0 | 0.00 | 0.00 | 0.00 | 34 | 1023.0 |
| 20260903223244 | 79 | 284 | 7.0 | 9.0 | 0.00 | 0.00 | 0.00 | 34 | 1023.0 |
| 20260903222739 | 82 | 295 | 6.0 | 9.0 | 0.00 | 0.00 | 0.00 | 32 | 1023.2 |
| 20260903222238 | 82 | 273 | 6.0 | 7.0 | 0.00 | 0.00 | 0.00 | 31 | 1022.9 |